Regional Weather Roundup
Issued by NWS Goodland, KS

Home | Current Version | Previous Version | Graphics & Text | Print | Product List | Glossary On
Versions: 1 2 3 4 5 6 7 8 9 10 11 12 13 14 15 16 17 18 19 20 21 22 23 24 25 26 27 28 29 30 31 32 33 34 35 36 37 38 39 40 41 42 43 44 45 46 47 48 49 50
000
ASUS43 KGLD 020659
RWRGLD

GOODLAND FORECAST AREA HOURLY WEATHER ROUNDUP
NATIONAL WEATHER SERVICE GOODLAND KS
100 AM MDT TUE JUN 02 2015

...OFFICIAL OBSERVATIONS...

CITY           SKY/WX    TMP DP  RH WIND       PRES   REMARKS
GOODLAND KS    CLOUDY    65  63  93 SE12      29.97F
HILL CITY KS   MOCLDY    65  60  84 SE8       29.99F
IMPERIAL NEB   LGT RAIN  60  57  89 SE17G25   29.99F
MCCOOK NEB     TSTM      61  59  93 N5        30.06R FOG
AKRON CO       CLOUDY    61  60  97 E7        30.00R
BURLINGTON CO  CLOUDY    65  54  67 SW5       29.97F
LIMON CO       MOCLDY    62  47  57 SW13      30.04S
$$

...UNOFFICIAL OBSERVATIONS...

CITY           SKY/WX    TMP DP  RH WIND       PRES   REMARKS
GOVE KS          N/A     66  32  28 MISG        N/A
NORTON KS      CLEAR     63  57  82 SE8       29.98F
SHARON SPRINGS   N/A     67  64  89 MISG        N/A
KIT CARSON CO    N/A     65  53  65 MISG        N/A
$$



USA.gov is the U.S. government's official web portal to all federal, state and local government web resources and services.